Regional Weather Roundup
Issued by NWS

Home | Current Version | Previous Version | Graphics & Text | Print | Product List | Glossary On
Versions: 1 2 3 4 5 6 7 8 9 10 11 12 13 14 15 16 17 18 19 20 21 22 23 24 25 26 27 28 29 30 31 32 33 34 35 36 37 38 39 40 41 42 43 44 45 46 47 48 49 50
534
ASUS43 KLOT 252209
RWRIL

ILLINOIS REGIONAL WEATHER ROUNDUP
NATIONAL WEATHER SERVICE CHICAGO/ROMEOVILLE IL
500 PM CDT THU MAY 25 2017

NOTE: "FAIR" INDICATES FEW OR NO CLOUDS BELOW 12,000 FEET WITH NO
SIGNIFICANT WEATHER AND/OR OBSTRUCTIONS TO VISIBILITY.

* THESE STATIONS ARE NOT UNDER NWS QUALITY CONTROL. THEY ALSO MAY NOT
  REPORT WEATHER SUCH AS PRECIPITATION OR FOG.

ILZ001-002-007-009-015-016-024-252300-
NORTHWEST ILLINOIS

CITY           SKY/WX    TMP DP  RH WIND       PRES   REMARKS
MOLINE         SUNNY     72  50  45 VRB3      29.67R
STERLING*      SUNNY     71  57  61 NW6       29.69S
SAVANNA*       SUNNY     68  56  64 SW7       29.68S
$$

ILZ003-004-008-010-011-017-018-252300-
NORTH CENTRAL ILLINOIS

CITY           SKY/WX    TMP DP  RH WIND       PRES   REMARKS
ROCKFORD       MOSUNNY   71  53  52 NE6       29.69R
FREEPORT*      MOSUNNY   69  54  58 NE3       29.69S
ROCHELLE*      PTSUNNY   67  55  66 N5        29.69S
DE KALB*       PTSUNNY   65  54  68 NW7       29.69R
PERU*          PTSUNNY   66  53  63 NW3       29.69S
$$

ILZ005-006-012>014-019>023-252300-
NORTHEAST ILLINOIS

CITY           SKY/WX    TMP DP  RH WIND       PRES   REMARKS
CHICAGO-OHARE  PTSUNNY   66  52  60 NE10      29.66R
CHICAGO-MIDWAY PTSUNNY   65  53  65 N15       29.66R
AURORA         MOSUNNY   69  56  62 NW9       29.67S
LANSING*       PTSUNNY   60  54  78 N9        29.67R
JOLIET*        CLOUDY    68  57  67 NW5       29.67R
WAUKEGAN       MOSUNNY   64  53  67 NE9       29.66R
DUPAGE AIRPORT CLOUDY    69  57  65 NW12      29.66R
KANKAKEE*      CLOUDY    67  55  65 W10G16    29.67S
WHEELING       CLOUDY    62  53  72 NE10      29.68R
MORRIS*        PTSUNNY   67  55  63 NW7       29.67S
ROMEOVILLE*    CLOUDY    66  59  76 W10       29.67R
NORTHERLY ISL    N/A     59  50  72 N15         N/A
$$

LMZ740>746-252300-
SOUTHERN LAKE MICHIGAN

STATION/POSITION SKY/WX   TEMP    WIND        PRES    VSBY  WAVE
                          AIR SEA DIR/SP/G                  HT/PER
                          (F)     (DEG/KT/KT) (MB)    (MI)  (FT/S)
SOUTHERN BUOY              47 45  350/ 14/ 16 1003.6R         3/ 5
WILMETTE HARBOR            50 51                N/A           3/ 5
HARRISON CRIB              53     340/ 12/ 14   N/A
BURNHAM HARBOR             59     350/ 12/ 16   N/A
CALUMET HARBOR             56     350/  9/ 13 1004.2R
BURNS HARBOR               51     320/  4/  8 1005.1R
MICHIGAN CITY              51     280/  9/ 10   N/A
MICHIGAN CITY 6N           49 51  330/ 10/ 12   N/A           3/ 5
ST. JOSEPH                 52 55  340/  8/ 12 1004.2          4/ 5
$$

ILZ025>027-034>036-040-047-049-050-058-095>099-252300-
WEST-CENTRAL ILLINOIS

CITY           SKY/WX    TMP DP  RH WIND       PRES   REMARKS
QUINCY         SUNNY     73  53  49 W9        29.69S
GALESBURG*     SUNNY     73  53  49 S7        29.67S
MACOMB*        MOSUNNY   70  53  55 W5        29.71S
JACKSONVILLE*  SUNNY     72  53  51 SW5       29.69S
PITTSFIELD*    MOSUNNY   72  52  48 W7        29.71S
$$

ILZ028>032-037-038-041>044-048-051>054-059>061-252300-
CENTRAL ILLINOIS

CITY           SKY/WX    TMP DP  RH WIND       PRES   REMARKS
PONTIAC        CLOUDY    65  58  79 NW7       29.70S
BLOOMINGTON    SUNNY     66  56  70 N8        29.71S
DECATUR        MOSUNNY   72  54  53 W8        29.69S
PEORIA         MOSUNNY   68  57  68 E8        29.69R
LACON*         SUNNY     65  55  69 CALM      29.69S
LINCOLN*       PTSUNNY   71  56  58 CALM      29.69S
SPRINGFIELD    MOSUNNY   73  55  53 SW7       29.69S
TAYLORVILLE    MOSUNNY   72  54  53 W8        29.71R
$$

ILZ033-039-045-046-055>057-062-063-252300-
EAST-CENTRAL ILLINOIS

CITY           SKY/WX    TMP DP  RH WIND       PRES   REMARKS
CHAMPAIGN      MOSUNNY   66  55  67 NW14      29.70R
RANTOUL*       CLOUDY    65  57  73 NW14      29.70R
MATTOON        SUNNY     70  60  70 NW12      29.69S
PARIS*         PTSUNNY   65  56  73 NW13G18   29.71R
$$

ILZ079-100>102-252300-
SOUTHWEST ILLINOIS

CITY           SKY/WX    TMP DP  RH WIND       PRES   REMARKS
ALTON          MOSUNNY   70  50  49 SW6       29.71S
BELLEVILLE     SUNNY     75  51  43 W7        29.71F
CAHOKIA*       SUNNY     76  48  37 S6        29.70S
SPARTA*        PTSUNNY   74  52  44 W9        29.73R
$$

ILZ064>066-069>071-074>076-080>082-084>086-088>090-092>094-252300-
SOUTH-CENTRAL ILLINOIS

CITY           SKY/WX    TMP DP  RH WIND       PRES   REMARKS
CARBONDALE     MOSUNNY   74  51  44 W7        29.72S
CAIRO*         SUNNY     76  51  41 SW9       29.73F
EFFINGHAM*     MOSUNNY   72  57  58 W10       29.71S
MARION         MOSUNNY   75  52  43 S6        29.73F
MT. VERNON       N/A     73  52  47 SW8       29.71F
CENTRALIA*     MOSUNNY   73  55  52 W9        29.71R
SALEM*         PTSUNNY   73  52  47 W7        29.71S
METROPOLIS*    MOSUNNY   76  50  40 SW8       29.74S
$$

ILZ067-068-072-073-078-083-087-091-252300-
SOUTHEAST ILLINOIS

CITY           SKY/WX    TMP DP  RH WIND       PRES   REMARKS
LAWRENCEVILLE  MOSUNNY   73  57  57 W14       29.69S
FLORA*         MOSUNNY   75  55  49 W14       29.71R
FAIRFIELD*     PTSUNNY   73  53  49 W5        29.70S
HARRISBURG*    MOSUNNY   74  52  47 SW6G17    29.72F
ROBINSON*      PTSUNNY   69  58  68 NW8       29.71R
CARMI*         MOSUNNY   74  55  50 W14       29.71S
$$

ABBREVIATIONS USED IN REMARKS
   TC - TEMPERATURE IN CELSIUS
  WCI - WIND CHILL INDEX
   HX - HEAT INDEX
  VSB - VISIBILITY
$$





USA.gov is the U.S. government's official web portal to all federal, state and local government web resources and services.